QPF
0.02 0.03 0.03 0.04 0.04 0.04 0.05 0.07 0.09 0.11 0.12 0.12 0.12 0.11 0.12 0.13 0.11 0.12 0.09 0.05 0.04 0.05 0.09 0.11 0.09 0.07 0.07 0.07 0.06 0.06 0.07 0.08 0.07 0.05 0.04 0.04 0.04 0.04 0.04 0.03 0.02 0.02 0.02
0.03 0.06 0.05 0.07 0.07 0.07 0.09 0.12 0.14 0.17 0.15 0.13 0.11 0.12 0.11 0.12 0.12 0.12 0.10 0.07 0.04 0.03 0.05 0.07 0.08 0.07 0.06 0.08 0.07 0.06 0.06 0.06 0.05 0.04 0.04 0.04 0.03 0.03 0.03 0.03 0.02 0.02 0.01
0.07 0.08 0.08 0.08 0.10 0.12 0.15 0.15 0.16 0.18 0.16 0.14 0.13 0.14 0.12 0.11 0.10 0.10 0.09 0.07 0.04 0.02 0.02 0.03 0.04 0.04 0.04 0.07 0.08 0.06 0.04 0.04 0.03 0.03 0.03 0.02 0.02 0.02 0.03 0.03 0.02 0.01 0.01
0.13 0.13 0.12 0.11 0.14 0.16 0.16 0.17 0.20 0.21 0.19 0.18 0.17 0.14 0.14 0.12 0.09 0.09 0.07 0.07 0.07 0.03 0.02 0.02 0.01 0.01 0.02 0.04 0.07 0.07 0.05 0.04 0.03 0.03 0.03 0.02 0.03 0.03 0.03 0.02 0.02 0.01 0.01
0.14 0.16 0.13 0.12 0.15 0.17 0.17 0.19 0.22 0.23 0.23 0.23 0.20 0.14 0.11 0.10 0.10 0.08 0.07 0.05 0.05 0.03 0.01 0.01 0.01 0.01 0.01 0.02 0.04 0.06 0.06 0.05 0.04 0.04 0.04 0.04 0.03 0.02 0.02 0.01 0.02 0.01 0.01
0.12 0.15 0.12 0.12 0.18 0.18 0.18 0.21 0.23 0.26 0.24 0.24 0.20 0.14 0.11 0.09 0.08 0.08 0.06 0.04 0.02 0.01 0.01 0.01 0.01 0.02 0.01 0.01 0.02 0.03 0.05 0.05 0.05 0.04 0.05 0.06 0.06 0.04 0.03 0.02 0.02 0.01 0.01
0.10 0.13 0.12 0.13 0.17 0.17 0.16 0.21 0.24 0.24 0.24 0.27 0.26 0.17 0.11 0.08 0.06 0.07 0.05 0.04 0.02 0.02 0.02 0.03 0.03 0.03 0.03 0.02 0.02 0.02 0.03 0.04 0.04 0.04 0.05 0.06 0.07 0.06 0.04 0.03 0.02 0.01 0.01
0.06 0.07 0.08 0.11 0.15 0.16 0.15 0.17 0.22 0.22 0.23 0.25 0.24 0.24 0.17 0.12 0.09 0.07 0.06 0.05 0.04 0.04 0.03 0.03 0.04 0.05 0.06 0.06 0.05 0.04 0.04 0.05 0.06 0.06 0.05 0.05 0.05 0.05 0.05 0.05 0.04 0.02 0.02
0.03 0.04 0.06 0.08 0.09 0.11 0.10 0.14 0.18 0.20 0.20 0.18 0.19 0.26 0.25 0.21 0.18 0.12 0.08 0.06 0.06 0.06 0.05 0.05 0.05 0.05 0.06 0.08 0.08 0.07 0.06 0.06 0.05 0.05 0.05 0.05 0.05 0.05 0.05 0.06 0.06 0.04 0.03
0.01 0.01 0.02 0.03 0.03 0.04 0.05 0.06 0.08 0.11 0.14 0.14 0.15 0.17 0.21 0.23 0.22 0.15 0.09 0.06 0.05 0.05 0.06 0.05 0.05 0.05 0.06 0.07 0.08 0.07 0.06 0.07 0.04 0.04 0.04 0.04 0.04 0.04 0.05 0.08 0.11 0.10 0.08
0.00 0.00 0.00 0.01 0.01 0.02 0.02 0.03 0.05 0.08 0.09 0.11 0.12 0.12 0.13 0.13 0.13 0.12 0.10 0.08 0.07 0.06 0.06 0.07 0.06 0.06 0.06 0.05 0.05 0.04 0.03 0.03 0.04 0.03 0.03 0.03 0.04 0.05 0.06 0.09 0.15 0.17 0.16
0.00 0.00 0.00 0.00 0.01 0.01 0.01 0.02 0.04 0.06 0.07 0.08 0.09 0.10 0.10 0.09 0.08 0.08 0.10 0.11 0.12 0.12 0.10 0.09 0.07 0.07 0.05 0.05 0.03 0.02 0.02 0.02 0.02 0.03 0.03 0.02 0.02 0.03 0.06 0.10 0.14 0.16 0.19
0.00 0.00 0.00 0.01 0.01 0.02 0.02 0.03 0.04 0.05 0.05 0.06 0.06 0.07 0.08 0.09 0.10 0.12 0.14 0.15 0.16 0.16 0.13 0.09 0.07 0.07 0.05 0.05 0.03 0.02 0.02 0.02 0.02 0.03 0.03 0.03 0.03 0.03 0.05 0.07 0.10 0.13 0.16
0.00 0.00 0.00 0.01 0.01 0.02 0.02 0.03 0.04 0.03 0.04 0.05 0.05 0.07 0.08 0.08 0.11 0.14 0.15 0.18 0.16 0.14 0.12 0.09 0.07 0.05 0.05 0.05 0.03 0.01 0.01 0.01 0.01 0.01 0.02 0.02 0.03 0.03 0.04 0.05 0.08 0.10 0.12
0.00 0.00 0.00 0.01 0.01 0.01 0.02 0.02 0.03 0.03 0.04 0.04 0.05 0.07 0.08 0.09 0.11 0.15 0.18 0.19 0.18 0.15 0.12 0.09 0.07 0.05 0.06 0.05 0.03 0.03 0.01 0.00 0.00 0.00 0.01 0.01 0.02 0.02 0.03 0.03 0.04 0.05 0.07
0.00 0.00 0.00 0.01 0.01 0.02 0.03 0.03 0.03 0.04 0.06 0.07 0.07 0.09 0.09 0.10 0.11 0.14 0.16 0.17 0.17 0.17 0.13 0.07 0.05 0.04 0.05 0.03 0.03 0.03 0.01 0.01 0.00 0.00 0.00 0.01 0.01 0.02 0.03 0.03 0.03 0.03 0.03
0.01 0.01 0.01 0.01 0.02 0.02 0.02 0.03 0.03 0.04 0.05 0.07 0.08 0.10 0.11 0.13 0.14 0.14 0.14 0.15 0.16 0.16 0.12 0.06 0.05 0.05 0.05 0.04 0.03 0.02 0.01 0.01 0.00 0.00 0.00 0.00 0.01 0.02 0.03 0.03 0.04 0.03 0.03
0.01 0.01 0.01 0.01 0.01 0.01 0.01 0.02 0.03 0.03 0.05 0.08 0.11 0.12 0.12 0.11 0.12 0.13 0.14 0.15 0.15 0.14 0.11 0.08 0.06 0.05 0.05 0.04 0.03 0.01 0.01 0.01 0.00 0.00 0.00 0.00 0.00 0.00 0.01 0.01 0.02 0.02 0.02
0.01 0.01 0.01 0.01 0.01 0.01 0.01 0.01 0.02 0.03 0.05 0.07 0.10 0.11 0.11 0.11 0.11 0.11 0.12 0.13 0.14 0.12 0.11 0.08 0.07 0.05 0.04 0.03 0.02 0.01 0.00 0.00 0.00 0.00 0.00 0.00 0.00 0.00 0.00 0.00 0.00 0.00 0.00
0.01 0.01 0.01 0.02 0.01 0.01 0.02 0.03 0.03 0.05 0.06 0.07 0.09 0.10 0.11 0.13 0.13 0.14 0.13 0.11 0.10 0.10 0.10 0.08 0.06 0.04 0.03 0.03 0.02 0.01 0.00 0.00 0.00 0.00 0.00 0.00 0.00 0.00 0.00 0.00 0.00 0.00 0.00
0.02 0.01 0.02 0.02 0.02 0.02 0.02 0.02 0.03 0.04 0.06 0.09 0.11 0.12 0.13 0.15 0.16 0.15 0.14 0.11 0.09 0.08 0.08 0.06 0.05 0.03 0.02 0.02 0.01 0.01 0.00 0.00 0.00 0.00 0.00 0.00 0.00 0.00 0.00 0.00 0.00 0.00 0.00
0.02 0.02 0.01 0.02 0.02 0.01 0.01 0.01 0.03 0.04 0.05 0.07 0.10 0.10 0.10 0.11 0.12 0.13 0.14 0.12 0.10 0.08 0.06 0.05 0.03 0.02 0.01 0.01 0.01 0.01 0.00 0.00 0.00 0.00 0.00 0.00 0.00 0.00 0.00 0.00 0.00 0.00 0.00
0.03 0.03 0.03 0.03 0.02 0.02 0.01 0.01 0.01 0.03 0.04 0.04 0.05 0.08 0.09 0.11 0.11 0.11 0.11 0.10 0.10 0.09 0.06 0.04 0.03 0.02 0.01 0.00 0.00 0.00 0.00 0.00 0.00 0.00 0.00 0.00 0.00 0.01 0.00 0.00 0.00 0.00 0.00
0.06 0.06 0.06 0.05 0.05 0.03 0.01 0.01 0.02 0.02 0.03 0.05 0.04 0.05 0.07 0.10 0.11 0.08 0.07 0.07 0.07 0.05 0.03 0.02 0.01 0.01 0.00 0.00 0.00 0.00 0.00 0.00 0.00 0.00 0.00 0.00 0.00 0.00 0.00 0.00 0.00 0.00 0.00
0.08 0.10 0.10 0.10 0.08 0.05 0.02 0.02 0.02 0.02 0.03 0.05 0.05 0.04 0.03 0.05 0.07 0.05 0.03 0.03 0.02 0.01 0.00 0.00 0.00 0.00 0.00 0.00 0.00 0.00 0.00 0.00 0.00 0.00 0.00 0.00 0.00 0.00 0.01 0.01 0.00 0.00 0.00
0.11 0.12 0.13 0.13 0.11 0.09 0.05 0.03 0.02 0.02 0.02 0.03 0.04 0.04 0.03 0.02 0.02 0.02 0.02 0.01 0.01 0.00 0.00 0.00 0.00 0.00 0.00 0.00 0.00 0.00 0.00 0.00 0.00 0.00 0.00 0.00 0.00 0.00 0.00 0.01 0.00 0.01 0.01
MSLP
1012.61 1012.61 1012.58 1012.53 1012.48 1012.44 1012.42 1012.45 1012.50 1012.58 1012.65 1012.70 1012.71 1012.69 1012.64 1012.58 1012.53 1012.52 1012.55 1012.63 1012.74 1012.87 1012.99 1013.08 1013.15 1013.19 1013.22 1013.26 1013.32 1013.43 1013.58 1013.78 1014.03 1014.31 1014.61 1014.92 1015.24 1015.55 1015.86 1016.17 1016.49 1016.80 1017.12
1012.36 1012.39 1012.38 1012.35 1012.30 1012.24 1012.19 1012.17 1012.19 1012.23 1012.29 1012.35 1012.39 1012.41 1012.40 1012.37 1012.33 1012.30 1012.30 1012.31 1012.35 1012.40 1012.45 1012.49 1012.52 1012.54 1012.56 1012.59 1012.65 1012.75 1012.90 1013.09 1013.33 1013.61 1013.92 1014.24 1014.57 1014.91 1015.25 1015.59 1015.92 1016.25 1016.58
1012.13 1012.18 1012.21 1012.19 1012.14 1012.06 1011.99 1011.94 1011.92 1011.95 1012.01 1012.09 1012.17 1012.23 1012.26 1012.25 1012.22 1012.16 1012.10 1012.04 1011.99 1011.94 1011.91 1011.89 1011.87 1011.85 1011.85 1011.88 1011.93 1012.02 1012.16 1012.34 1012.58 1012.85 1013.16 1013.50 1013.86 1014.22 1014.59 1014.96 1015.32 1015.67 1016.01
1011.88 1011.95 1011.99 1011.97 1011.91 1011.82 1011.73 1011.66 1011.63 1011.65 1011.73 1011.84 1011.96 1012.06 1012.13 1012.15 1012.12 1012.03 1011.91 1011.78 1011.63 1011.49 1011.38 1011.28 1011.20 1011.15 1011.12 1011.13 1011.17 1011.25 1011.37 1011.55 1011.77 1012.04 1012.36 1012.71 1013.09 1013.48 1013.88 1014.28 1014.67 1015.04 1015.40
1011.60 1011.66 1011.69 1011.66 1011.58 1011.47 1011.35 1011.26 1011.22 1011.25 1011.35 1011.49 1011.66 1011.82 1011.93 1011.98 1011.95 1011.85 1011.69 1011.48 1011.26 1011.04 1010.85 1010.68 1010.55 1010.46 1010.41 1010.39 1010.41 1010.48 1010.59 1010.74 1010.95 1011.21 1011.53 1011.88 1012.28 1012.69 1013.12 1013.55 1013.97 1014.37 1014.76
1011.29 1011.32 1011.31 1011.25 1011.14 1010.99 1010.85 1010.73 1010.68 1010.71 1010.83 1011.01 1011.22 1011.42 1011.58 1011.67 1011.66 1011.56 1011.37 1011.13 1010.86 1010.59 1010.34 1010.12 1009.96 1009.83 1009.76 1009.72 1009.73 1009.77 1009.86 1009.99 1010.18 1010.42 1010.71 1011.06 1011.45 1011.87 1012.32 1012.77 1013.21 1013.65 1014.06
1010.99 1010.97 1010.91 1010.79 1010.63 1010.44 1010.25 1010.10 1010.03 1010.06 1010.18 1010.38 1010.62 1010.86 1011.07 1011.19 1011.22 1011.13 1010.96 1010.72 1010.43 1010.14 1009.87 1009.64 1009.45 1009.31 1009.23 1009.18 1009.17 1009.20 1009.26 1009.36 1009.52 1009.73 1009.99 1010.30 1010.66 1011.07 1011.50 1011.95 1012.40 1012.86 1013.30
1010.74 1010.66 1010.53 1010.35 1010.13 1009.88 1009.64 1009.45 1009.35 1009.34 1009.45 1009.64 1009.90 1010.16 1010.40 1010.56 1010.63 1010.58 1010.45 1010.24 1009.98 1009.71 1009.46 1009.24 1009.07 1008.94 1008.86 1008.82 1008.80 1008.82 1008.86 1008.94 1009.06 1009.21 1009.42 1009.68 1009.98 1010.33 1010.72 1011.14 1011.58 1012.03 1012.48
1010.58 1010.43 1010.24 1010.00 1009.72 1009.41 1009.12 1008.87 1008.71 1008.66 1008.72 1008.89 1009.12 1009.38 1009.63 1009.82 1009.93 1009.95 1009.87 1009.72 1009.53 1009.32 1009.12 1008.95 1008.82 1008.73 1008.68 1008.66 1008.66 1008.68 1008.72 1008.77 1008.84 1008.94 1009.08 1009.26 1009.47 1009.74 1010.04 1010.39 1010.78 1011.20 1011.65
1010.50 1010.31 1010.06 1009.77 1009.43 1009.08 1008.73 1008.42 1008.20 1008.08 1008.08 1008.18 1008.36 1008.60 1008.83 1009.04 1009.19 1009.27 1009.26 1009.20 1009.10 1008.97 1008.86 1008.76 1008.69 1008.66 1008.66 1008.68 1008.72 1008.76 1008.80 1008.85 1008.89 1008.94 1009.00 1009.09 1009.20 1009.35 1009.54 1009.79 1010.10 1010.46 1010.88
1010.47 1010.24 1009.96 1009.64 1009.27 1008.87 1008.48 1008.12 1007.83 1007.63 1007.55 1007.57 1007.68 1007.86 1008.07 1008.28 1008.46 1008.59 1008.67 1008.70 1008.69 1008.67 1008.65 1008.64 1008.66 1008.70 1008.76 1008.84 1008.93 1009.01 1009.08 1009.14 1009.17 1009.18 1009.18 1009.18 1009.18 1009.21 1009.28 1009.41 1009.62 1009.90 1010.27
1010.40 1010.15 1009.87 1009.53 1009.15 1008.74 1008.31 1007.91 1007.56 1007.29 1007.11 1007.05 1007.08 1007.19 1007.37 1007.57 1007.77 1007.95 1008.10 1008.22 1008.32 1008.40 1008.48 1008.56 1008.66 1008.78 1008.91 1009.06 1009.21 1009.35 1009.47 1009.56 1009.60 1009.61 1009.57 1009.50 1009.41 1009.34 1009.29 1009.31 1009.41 1009.60 1009.90
1010.23 1009.97 1009.69 1009.36 1008.99 1008.58 1008.15 1007.72 1007.32 1006.99 1006.74 1006.59 1006.54 1006.59 1006.72 1006.91 1007.12 1007.35 1007.58 1007.79 1007.98 1008.15 1008.32 1008.48 1008.66 1008.85 1009.05 1009.26 1009.48 1009.69 1009.87 1010.02 1010.10 1010.13 1010.09 1010.00 1009.86 1009.71 1009.58 1009.50 1009.51 1009.62 1009.85
1009.89 1009.63 1009.36 1009.05 1008.70 1008.32 1007.90 1007.46 1007.04 1006.66 1006.35 1006.14 1006.02 1006.02 1006.12 1006.30 1006.53 1006.81 1007.10 1007.38 1007.66 1007.91 1008.16 1008.39 1008.63 1008.87 1009.13 1009.40 1009.68 1009.95 1010.21 1010.42 1010.58 1010.66 1010.66 1010.58 1010.45 1010.28 1010.11 1009.97 1009.91 1009.96 1010.12
1009.38 1009.12 1008.85 1008.57 1008.26 1007.90 1007.51 1007.09 1006.66 1006.26 1005.92 1005.66 1005.51 1005.47 1005.55 1005.73 1006.00 1006.32 1006.67 1007.02 1007.37 1007.69 1008.00 1008.28 1008.56 1008.84 1009.14 1009.45 1009.77 1010.10 1010.42 1010.71 1010.94 1011.10 1011.18 1011.16 1011.08 1010.94 1010.78 1010.64 1010.56 1010.56 1010.68
1008.75 1008.47 1008.21 1007.95 1007.67 1007.35 1006.99 1006.60 1006.19 1005.79 1005.43 1005.16 1004.99 1004.95 1005.03 1005.23 1005.53 1005.89 1006.30 1006.72 1007.13 1007.51 1007.86 1008.18 1008.49 1008.79 1009.10 1009.42 1009.77 1010.14 1010.50 1010.85 1011.16 1011.40 1011.57 1011.65 1011.65 1011.58 1011.49 1011.39 1011.33 1011.33 1011.41
1008.09 1007.79 1007.53 1007.29 1007.03 1006.75 1006.42 1006.06 1005.67 1005.29 1004.95 1004.69 1004.53 1004.49 1004.59 1004.82 1005.16 1005.58 1006.04 1006.52 1006.98 1007.41 1007.79 1008.14 1008.45 1008.75 1009.05 1009.38 1009.72 1010.09 1010.47 1010.86 1011.21 1011.53 1011.78 1011.96 1012.06 1012.11 1012.11 1012.09 1012.09 1012.12 1012.19
1007.51 1007.19 1006.92 1006.69 1006.45 1006.20 1005.90 1005.57 1005.21 1004.86 1004.55 1004.31 1004.18 1004.17 1004.30 1004.56 1004.94 1005.40 1005.91 1006.43 1006.94 1007.40 1007.82 1008.18 1008.50 1008.79 1009.07 1009.36 1009.68 1010.02 1010.38 1010.76 1011.14 1011.49 1011.81 1012.07 1012.28 1012.44 1012.55 1012.63 1012.71 1012.78 1012.88
1007.07 1006.74 1006.48 1006.25 1006.03 1005.79 1005.52 1005.22 1004.90 1004.59 1004.31 1004.11 1004.01 1004.04 1004.20 1004.49 1004.90 1005.40 1005.94 1006.50 1007.04 1007.53 1007.96 1008.33 1008.65 1008.92 1009.18 1009.43 1009.69 1009.98 1010.29 1010.63 1010.99 1011.34 1011.69 1012.01 1012.29 1012.55 1012.76 1012.94 1013.10 1013.23 1013.35
1006.82 1006.49 1006.23 1006.00 1005.79 1005.57 1005.32 1005.06 1004.78 1004.51 1004.28 1004.12 1004.07 1004.13 1004.33 1004.65 1005.08 1005.59 1006.15 1006.72 1007.27 1007.78 1008.23 1008.60 1008.92 1009.17 1009.40 1009.60 1009.80 1010.02 1010.26 1010.53 1010.82 1011.14 1011.47 1011.81 1012.14 1012.45 1012.75 1013.01 1013.24 1013.43 1013.58
1006.70 1006.39 1006.13 1005.92 1005.72 1005.51 1005.30 1005.07 1004.83 1004.62 1004.45 1004.35 1004.34 1004.45 1004.67 1005.01 1005.45 1005.96 1006.51 1007.08 1007.63 1008.13 1008.58 1008.96 1009.27 1009.51 1009.71 1009.87 1010.01 1010.16 1010.31 1010.49 1010.70 1010.95 1011.23 1011.55 1011.88 1012.22 1012.56 1012.88 1013.16 1013.39 1013.56
1006.64 1006.34 1006.11 1005.90 1005.72 1005.54 1005.35 1005.17 1005.00 1004.86 1004.76 1004.74 1004.79 1004.95 1005.20 1005.55 1005.97 1006.47 1006.99 1007.53 1008.05 1008.54 1008.98 1009.35 1009.66 1009.89 1010.08 1010.21 1010.30 1010.38 1010.46 1010.55 1010.68 1010.84 1011.05 1011.31 1011.61 1011.94 1012.29 1012.62 1012.93 1013.18 1013.37
1006.51 1006.25 1006.03 1005.84 1005.67 1005.52 1005.38 1005.27 1005.18 1005.12 1005.12 1005.19 1005.32 1005.53 1005.82 1006.17 1006.59 1007.05 1007.53 1008.02 1008.50 1008.95 1009.37 1009.73 1010.03 1010.27 1010.44 1010.56 1010.64 1010.67 1010.69 1010.71 1010.76 1010.84 1010.98 1011.17 1011.42 1011.71 1012.03 1012.35 1012.65 1012.90 1013.08
1006.24 1006.00 1005.79 1005.61 1005.46 1005.35 1005.28 1005.24 1005.25 1005.31 1005.43 1005.60 1005.83 1006.11 1006.44 1006.81 1007.21 1007.63 1008.06 1008.49 1008.91 1009.32 1009.70 1010.04 1010.33 1010.58 1010.76 1010.89 1010.96 1010.98 1010.98 1010.96 1010.95 1010.97 1011.04 1011.17 1011.35 1011.59 1011.86 1012.14 1012.41 1012.63 1012.80
1005.78 1005.54 1005.33 1005.17 1005.05 1004.98 1004.98 1005.03 1005.16 1005.34 1005.59 1005.89 1006.22 1006.59 1006.97 1007.36 1007.76 1008.14 1008.52 1008.89 1009.25 1009.60 1009.94 1010.26 1010.55 1010.79 1010.99 1011.14 1011.23 1011.27 1011.27 1011.25 1011.22 1011.21 1011.23 1011.31 1011.44 1011.62 1011.83 1012.05 1012.27 1012.44 1012.57
1005.14 1004.90 1004.69 1004.53 1004.44 1004.42 1004.49 1004.65 1004.89 1005.21 1005.59 1006.01 1006.46 1006.92 1007.36 1007.78 1008.18 1008.54 1008.87 1009.19 1009.50 1009.79 1010.09 1010.38 1010.66 1010.92 1011.14 1011.31 1011.44 1011.52 1011.54 1011.54 1011.52 1011.51 1011.52 1011.56 1011.65 1011.77 1011.92 1012.08 1012.23 1012.35 1012.43
Thickness
5768 5767 5765 5762 5762 5762 5761 5759 5759 5759 5758 5758 5757 5758 5757 5756 5756 5756 5756 5755 5754 5753 5752 5753 5753 5752 5752 5752 5752 5752 5751 5750 5749 5747 5746 5744 5742 5741 5739 5738 5736 5735 5733
5763 5761 5760 5758 5758 5757 5757 5756 5755 5754 5754 5754 5753 5753 5753 5753 5752 5752 5752 5753 5752 5751 5751 5751 5751 5752 5752 5752 5752 5751 5751 5751 5750 5749 5748 5746 5744 5743 5741 5739 5738 5736 5734
5758 5755 5755 5754 5754 5752 5751 5750 5750 5749 5748 5749 5748 5748 5748 5748 5748 5748 5748 5749 5750 5750 5749 5749 5749 5749 5750 5750 5750 5751 5751 5751 5750 5749 5749 5747 5746 5744 5742 5741 5739 5737 5736
5753 5751 5751 5751 5749 5747 5746 5745 5744 5743 5743 5742 5741 5741 5742 5742 5743 5743 5744 5745 5745 5747 5749 5748 5747 5747 5747 5748 5748 5749 5749 5750 5749 5749 5748 5748 5746 5745 5744 5742 5740 5739 5737
5749 5748 5747 5747 5745 5742 5742 5741 5741 5738 5736 5736 5735 5735 5735 5736 5737 5738 5739 5741 5742 5742 5744 5746 5745 5745 5745 5745 5746 5746 5747 5747 5748 5748 5748 5747 5746 5745 5744 5743 5741 5739 5737
5745 5744 5743 5743 5741 5738 5737 5735 5734 5733 5731 5730 5729 5730 5731 5733 5733 5734 5734 5737 5739 5740 5741 5743 5744 5744 5743 5743 5742 5743 5744 5745 5745 5746 5746 5746 5745 5745 5744 5742 5741 5740 5738
5741 5739 5738 5737 5736 5734 5733 5732 5729 5727 5726 5726 5721 5721 5725 5728 5729 5729 5730 5732 5735 5737 5738 5739 5739 5741 5742 5740 5739 5739 5740 5741 5742 5743 5743 5744 5743 5743 5742 5742 5740 5739 5737
5736 5737 5734 5732 5732 5729 5728 5727 5725 5722 5722 5722 5717 5712 5713 5718 5723 5729 5729 5728 5731 5732 5734 5735 5734 5734 5735 5736 5736 5735 5735 5736 5737 5738 5739 5740 5741 5741 5741 5740 5739 5738 5737
5731 5729 5728 5727 5726 5725 5725 5723 5720 5717 5716 5718 5716 5710 5708 5711 5717 5722 5725 5727 5727 5727 5729 5729 5728 5728 5728 5729 5730 5729 5730 5730 5731 5732 5734 5735 5737 5738 5739 5738 5738 5737 5735
5726 5724 5723 5721 5720 5720 5720 5719 5719 5715 5712 5712 5713 5713 5712 5713 5707 5710 5716 5721 5722 5722 5724 5725 5725 5724 5723 5722 5722 5721 5722 5723 5723 5725 5728 5730 5732 5734 5735 5736 5736 5735 5733
5721 5720 5718 5716 5714 5714 5714 5712 5711 5710 5709 5708 5709 5709 5708 5707 5706 5703 5705 5711 5714 5718 5718 5718 5718 5718 5717 5716 5715 5714 5714 5715 5716 5718 5721 5723 5726 5728 5730 5731 5732 5731 5730
5718 5716 5713 5711 5709 5709 5708 5706 5706 5705 5704 5704 5704 5705 5704 5703 5703 5702 5701 5703 5704 5707 5709 5709 5710 5710 5710 5709 5707 5705 5705 5707 5708 5710 5712 5714 5718 5720 5723 5725 5726 5727 5726
5713 5710 5708 5705 5704 5703 5701 5701 5701 5700 5700 5699 5698 5700 5702 5703 5703 5701 5698 5698 5697 5698 5699 5700 5702 5702 5702 5701 5698 5696 5696 5697 5699 5701 5703 5705 5708 5710 5713 5716 5718 5719 5720
5708 5704 5701 5700 5699 5698 5697 5696 5696 5696 5696 5695 5695 5695 5696 5698 5698 5697 5695 5692 5688 5689 5689 5690 5692 5693 5693 5692 5688 5688 5688 5687 5689 5691 5693 5695 5697 5700 5702 5705 5707 5708 5709
5701 5699 5697 5696 5695 5694 5692 5691 5691 5690 5691 5691 5691 5691 5691 5694 5693 5693 5692 5690 5685 5682 5680 5681 5683 5683 5684 5682 5680 5681 5680 5677 5678 5680 5682 5684 5686 5688 5690 5692 5694 5696 5698
5694 5692 5691 5690 5689 5689 5688 5686 5686 5687 5686 5686 5685 5685 5686 5688 5688 5688 5687 5687 5684 5681 5677 5677 5676 5676 5675 5675 5671 5672 5669 5668 5668 5669 5671 5672 5674 5676 5678 5680 5682 5684 5685
5686 5686 5685 5684 5683 5683 5682 5681 5681 5681 5681 5681 5681 5681 5681 5682 5681 5682 5681 5680 5679 5676 5670 5668 5668 5666 5665 5664 5663 5662 5663 5662 5659 5659 5660 5661 5663 5665 5666 5668 5669 5671 5673
5679 5679 5679 5678 5678 5678 5676 5675 5674 5675 5675 5676 5676 5676 5676 5676 5675 5675 5674 5673 5671 5669 5665 5659 5657 5656 5655 5654 5654 5654 5655 5655 5652 5649 5650 5651 5653 5654 5656 5657 5658 5660 5662
5669 5670 5671 5671 5671 5671 5670 5669 5668 5669 5669 5669 5670 5670 5670 5669 5667 5666 5666 5664 5663 5662 5658 5654 5650 5648 5647 5647 5646 5646 5646 5646 5647 5642 5642 5642 5643 5645 5646 5647 5648 5650 5651
5658 5660 5662 5663 5664 5664 5664 5663 5662 5661 5661 5661 5661 5662 5662 5661 5659 5658 5657 5655 5654 5651 5649 5646 5643 5641 5639 5638 5639 5639 5638 5639 5640 5640 5637 5637 5636 5637 5638 5639 5640 5641 5643
5645 5649 5651 5654 5655 5656 5657 5656 5654 5653 5653 5652 5651 5651 5651 5650 5649 5649 5649 5646 5645 5643 5641 5639 5636 5634 5632 5631 5633 5635 5633 5633 5632 5636 5636 5635 5635 5635 5634 5632 5632 5633 5634
5629 5634 5638 5642 5645 5648 5645 5642 5642 5644 5643 5642 5640 5639 5638 5638 5637 5636 5635 5635 5636 5635 5633 5631 5630 5627 5625 5627 5628 5630 5629 5630 5627 5628 5631 5631 5633 5631 5629 5627 5623 5625 5626
5612 5618 5624 5629 5633 5635 5632 5631 5630 5633 5634 5632 5631 5629 5629 5626 5626 5624 5622 5622 5621 5622 5623 5625 5623 5621 5620 5620 5622 5623 5623 5625 5622 5622 5625 5625 5627 5625 5624 5617 5617 5618 5619
5593 5601 5609 5615 5620 5623 5621 5620 5620 5623 5624 5623 5622 5620 5618 5616 5616 5615 5614 5612 5611 5610 5612 5614 5613 5612 5612 5612 5614 5615 5614 5613 5614 5616 5620 5620 5621 5620 5620 5615 5611 5612 5612
5575 5584 5593 5601 5607 5611 5609 5609 5610 5614 5614 5614 5612 5611 5610 5609 5605 5605 5606 5604 5601 5598 5598 5599 5600 5600 5600 5602 5606 5610 5610 5613 5612 5611 5614 5616 5615 5616 5615 5613 5609 5608 5607
5558 5568 5578 5587 5594 5601 5599 5600 5601 5607 5606 5605 5603 5602 5601 5600 5597 5598 5599 5598 5595 5594 5593 5593 5592 5593 5595 5596 5599 5605 5609 5611 5610 5608 5606 5610 5611 5613 5611 5609 5608 5606 5605